Location: Pabrico
(37.5827°N, 122.0063°W)
Time: 02:33:55
(UTC+00:00)

NOSS 2-2 (E) - Visible Passes

Search period start: 25 July 2024 00:00
Search period end: 04 August 2024 00:00
Orbit: 402 x 1749 km, 63.3° (Epoch: 24 July)

Date Brightness Start Highest point End Pass type
(mag) Time Alt. Az. Time Alt. Az. Time Alt. Az.
25 Jul 5.2 10:36:00 10° NNW 10:40:27 43° NE 10:46:37 10° SE visible
25 Jul 5.2 12:26:04 10° WNW 12:30:30 27° WSW 12:36:16 10° S visible
26 Jul 6.3 09:43:18 10° N 09:46:53 22° NE 09:51:24 10° E visible
26 Jul 4.4 11:32:03 10° NW 11:36:54 53° WSW 11:43:44 10° SSE visible
27 Jul 6.9 08:52:00 10° NNE 08:53:05 11° NE 08:54:14 10° ENE visible
27 Jul 4.2 10:38:34 10° NNW 10:43:21 77° ENE 10:50:11 10° SE visible
27 Jul 5.9 12:30:15 10° W 12:33:26 15° WSW 12:37:10 10° SSW visible
28 Jul 5.4 09:45:28 10° NNW 09:49:48 37° NE 09:55:43 10° ESE visible
28 Jul 5.0 11:35:16 10° WNW 11:39:50 31° WSW 11:45:55 10° S visible
29 Jul 6.3 08:52:51 10° N 08:56:10 19° NE 09:00:14 10° E visible
29 Jul 4.2 10:41:21 10° NW 10:46:12 61° WSW 10:48:38 37° S visible
30 Jul 4.4 09:47:53 10° NNW 09:52:36 67° ENE 09:53:05 64° E visible
30 Jul 6.1 11:39:04 10° WNW 11:39:41 12° W 11:39:41 12° W visible
31 Jul 5.4 08:54:50 10° N 08:59:01 33° NE 08:59:17 32° ENE visible
31 Jul 5.7 10:44:22 10° NW 10:45:56 20° WNW 10:45:56 20° WNW visible
01 Aug 6.3 08:02:19 10° N 08:05:18 17° NE 08:06:00 16° ENE visible
01 Aug 5.4 09:50:31 10° NW 09:52:41 29° NW 09:52:41 29° NW visible
02 Aug 5.4 08:57:06 10° NNW 08:59:42 34° N 08:59:42 34° N visible
03 Aug 5.8 08:04:04 10° N 08:06:54 26° NNE 08:06:54 26° NNE visible
03 Aug 6.4 09:53:22 10° NW 09:53:37 12° NW 09:53:37 12° NW visible
